• Processing (Info)

  • MPEC 2005-P13 : COMET C/2005 N1 (JUELS-HOLVORCEM)

    The following Minor Planet Electronic Circular may be linked-to from your own Web pages, but must not otherwise be redistributed electronically.

    A form allowing access to any MPEC is at the bottom of this page.


    Read MPEC 2005-P12 Read MPEC 2005-P14


    M.P.E.C. 2005-P13                                Issued 2005 Aug. 1, 23:01 UT
    
         The Minor Planet Electronic Circulars contain information on unusual
             minor planets and routine data on comets.  They are published
       on behalf of Commission 20 of the International Astronomical Union by the
              Minor Planet Center, Smithsonian Astrophysical Observatory,
                              Cambridge, MA 02138, U.S.A.
    
                      Supported in part by the Brinson Foundation
                 Prepared using the Tamkin Foundation Computer Network
    
                                  MPC@CFA.HARVARD.EDU
              URL http://cfa-www.harvard.edu/iau/mpc.html  ISSN 1523-6714
    
                           COMET C/2005 N1 (JUELS-HOLVORCEM)
    
    Observations:
        CK05N010   2005 07 06.68403 03 33 38.42 +37 42 53.7          14.6 T EP013372
        CK05N010  C2005 07 13.01205 04 02 40.06 +41 46 43.2          15.3 N EP013A32
        CK05N010  C2005 07 13.01431 04 02 40.77 +41 46 48.2          15.2 N EP013A32
        CK05N010  C2005 07 13.01656 04 02 41.42 +41 46 53.1          15.3 N EP013A32
        CK05N010  C2005 07 13.01882 04 02 42.10 +41 46 58.2          15.3 N EP013A32
        CK05N010   2005 07 14.71493 04 11 21.39 +42 50 26.7          14.5 T EP013372
        CK05N010   2005 07 14.72371 04 11 24.04 +42 50 46.6          14.3 T EP013372
        CK05N010   2005 07 14.75000 04 11 32.29 +42 51 46.1          14.2 T EP013372
        CK05N010   2005 07 14.75903 04 11 35.17 +42 52 05.6          14.3 T EP013372
        CK05N010   2005 07 16.75139 04 22 16.46 +44 04 49.7          13.5 T EP013372
        CK05N010  C2005 07 17.74465 04 27 49.33 +44 40 15.4                 EP013349
        CK05N010  C2005 07 17.74817 04 27 50.55 +44 40 23.3                 EP013349
        CK05N010  C2005 07 17.75171 04 27 51.73 +44 40 30.5          13.5 T EP013349
        CK05N010  C2005 07 21.07209 04 47 29.11 +46 33 36.9                 EP013J95
        CK05N010  C2005 07 21.07677 04 47 30.85 +46 33 46.1                 EP013J95
        CK05N010  C2005 07 21.08053 04 47 32.25 +46 33 53.6          15.6 N EP013J95
        CK05N010  C2005 07 21.75736 04 51 45.02 +46 55 48.8                 EP013349
        CK05N010  C2005 07 21.75913 04 51 45.73 +46 55 52.3                 EP013349
        CK05N010  C2005 07 21.76090 04 51 46.38 +46 55 55.9          13.2 T EP013349
        CK05N010  C2005 07 27.14501 05 27 48.36 +49 32 01.8          14.2 N EP013213
        CK05N010  C2005 07 27.15081 05 27 50.80 +49 32 10.9          14.3 N EP013213
        CK05N010  C2005 07 27.15135 05 27 51.04 +49 32 11.3          14.3 N EP013213
        CK05N010  C2005 07 27.67936 05 31 37.16 +49 45 26.1                 EP013349
        CK05N010  C2005 07 27.68020 05 31 37.52 +49 45 27.4                 EP013349
        CK05N010  C2005 07 27.68103 05 31 37.86 +49 45 29.2          12.8 T EP013349
    
    Observer details:
    213 Observatorio Montcabre.  Observer R. Naves.  Measurer M. Campas.  0.30-m
        f/10 Schmidt-Cassegrain + CCD.
    349 Ageo.  Observer K. Kadota.  0.25-m f/5.0 reflector + CCD.
    372 Geisei.  Observer T. Seki.  0.60-m f/3.5 reflector.
    A32 Panker.  Observer H. Denzau.  0.36-m f/5.5 Schmidt-Cassegrain + CCD.
    J95 Great Shefford.  Observer P. Birtwhistle.  0.40-m f/6.0 Schmidt-Cassegrain
        + CCD.
    
    Orbital elements:
        C/2005 N1 (Juels-Holvorcem)
    T 2005 Aug. 22.008 TT                                   MPC
    q   1.12585              (2000.0)            P               Q
                       Peri.   80.010       +0.138238       -0.989416
                       Node     3.246       +0.269399       -0.005303
    e   1.0            Incl.   51.175       +0.953055       +0.145011
    From 61 observations 2005 July 3-27.
    
    Ephemeris:
        C/2005 N1 (Juels-Holvorcem)
    Date    TT    R. A. (2000) Decl.     Delta      r     Elong.  Phase   m1    m2
    2005 07 29    05 41.21   +50 16.9    1.638    1.191    46.3    38.1  13.3
    2005 08 03    06 19.54   +51 49.8    1.625    1.167    45.6    38.4  13.2
    2005 08 08    06 59.96   +52 36.0    1.621    1.148    44.7    38.4  13.2
    2005 08 13    07 40.69   +52 32.1    1.627    1.135    43.7    38.0  13.1
    2005 08 18    08 19.82   +51 40.1    1.642    1.128    42.5    37.4  13.1
    2005 08 23    08 55.90   +50 06.9    1.665    1.126    41.4    36.4  13.1
    2005 08 28    09 28.18   +48 01.9    1.695    1.130    40.2    35.2  13.2
    2005 09 02    09 56.52   +45 34.8    1.731    1.140    39.0    33.8  13.3
    2005 09 07    10 21.20   +42 54.1    1.771    1.155    37.9    32.4  13.4
    2005 09 12    10 42.65   +40 06.7    1.814    1.176    36.9    30.9  13.5
    2005 09 17    11 01.39   +37 17.5    1.859    1.201    36.0    29.4  13.6
    2005 09 22    11 17.86   +34 29.9    1.906    1.231    35.3    28.1  13.8
    2005 09 27    11 32.47   +31 46.4    1.952    1.265    34.8    26.9  14.0
    
    Brian G. Marsden             (C) Copyright 2005 MPC           M.P.E.C. 2005-P13
    

    Read MPEC 2005-P12 Read MPEC 2005-P14


    MPEC number:

    Enter an MPEC number in one of the following forms:

    • 1997-B01 (the full form)
    • J97B01 (the packed version of the full form)
    • B01 (the abbreviated form)